{"data":{"norad_id":53703,"epoch":"2026-09-20T21:29:29.014944Z","epoch_age_seconds":47556,"freshness":"FRESH","line1":"1 53703U 22107D   26263.89547471  .00000278  00000+0  19388-4 0  9993","line2":"2 53703  53.1618  83.6216 0001428  91.5975 268.5191 15.34384845224376","mean_motion":15.34384845,"eccentricity":0.0001428,"inclination_deg":53.1618,"raan_deg":83.6216,"arg_perigee_deg":91.5975,"mean_anomaly_deg":268.5191,"bstar":1.9388e-5,"rev_number":22437,"period_min":93.848685008356,"perigee_km":461.77140601301,"apogee_km":463.72516285024,"semimajor_km":6840.8852844316,"source":"CELESTRAK","updated_at":"2026-09-21T09:00:32.982035Z"}}